This is the latest recevied weather packets stored in our database for station/object VE3VGJ. If no packets are shown the sender has not sent any weather packets the latest 10 day(s).
| Time | Temp. | Humidity | Pressure | Rain* | Wind** | Luminosity | Snow |
|---|---|---|---|---|---|---|---|
| 1777972831 | 12.78° C | 77% | 999 hPa | 0 mm | - | 0 W/m² | - |
| 1777972528 | 13.33° C | 76% | 999.1 hPa | 0 mm | - | 0 W/m² | - |
| 1777972226 | 13.33° C | 77% | 999.2 hPa | 0 mm | - | 0 W/m² | - |
| 1777971923 | 13.33° C | 76% | 998.8 hPa | 0 mm | - | 0 W/m² | - |
| 1777971621 | 13.33° C | 76% | 999 hPa | 0 mm | - | 0 W/m² | - |
| 1777971319 | 13.33° C | 76% | 998.9 hPa | 0 mm | - | 0 W/m² | - |
| 1777971017 | 13.33° C | 76% | 998.9 hPa | 0 mm | - | 0 W/m² | - |
| 1777970715 | 13.33° C | 76% | 999 hPa | 0 mm | - | 0 W/m² | - |
| 1777970413 | 13.89° C | 75% | 998.9 hPa | 0 mm | - | 0 W/m² | - |
| 1777970110 | 13.89° C | 75% | 999 hPa | 0 mm | - | 0 W/m² | - |
| 1777969806 | 13.33° C | 76% | 999.1 hPa | 0 mm | - | 0 W/m² | - |
| 1777969501 | 13.33° C | 77% | 999.2 hPa | 0 mm | - | 0 W/m² | - |
| 1777969199 | 13.33° C | 77% | 999.2 hPa | 0 mm | - | 0 W/m² | - |
| 1777968895 | 13.33° C | 76% | 999.3 hPa | 0 mm | - | 0 W/m² | - |
| 1777968592 | 13.33° C | 76% | 999.2 hPa | 0 mm | - | 0 W/m² | - |
| 1777968288 | 12.78° C | 77% | 999.4 hPa | 0 mm | - | 0 W/m² | - |
| 1777967984 | 12.78° C | 77% | 999.4 hPa | 0 mm | - | 0 W/m² | - |
| 1777967681 | 12.22° C | 78% | 999.2 hPa | 0 mm | - | 0 W/m² | - |
| 1777967378 | 12.22° C | 78% | 999.4 hPa | 0 mm | - | 0 W/m² | - |
| 1777967076 | 12.22° C | 77% | 999.5 hPa | 0 mm | - | 0 W/m² | - |
| 1777966772 | 12.78° C | 77% | 999.3 hPa | 0 mm | - | 0 W/m² | - |
| 1777966470 | 12.78° C | 76% | 999.3 hPa | 0 mm | - | 0 W/m² | - |
| 1777966167 | 12.78° C | 76% | 999.3 hPa | 0 mm | - | 0 W/m² | - |
| 1777965863 | 12.78° C | 76% | 999.5 hPa | 0 mm | - | 0 W/m² | - |
| 1777965559 | 12.78° C | 75% | 999.2 hPa | 0 mm | - | 0 W/m² | - |
* Rain latest hour (hover to see other rain measurements)
** Current wind speed in m/s (hover to see current wind gust speed)